Location: Pedholt
(56.0260°N, 10.2097°E)
Time: 16:33:40
(UTC+00:00)

A-11 Canister half - Pass Details

Date: 29 July 2021
Orbit: 1515 x 1685 km, 47.2° (Epoch: 20 September)

Event Time Altitude Azimuth Distance (km) Brightness Sun altitude
Rises 22:06:47 0° 277° (W) 4,906 12.0 -13.6°
Reaches altitude 10° 22:10:11 10° 270° (W) 3,932 11.4 -13.8°
Maximum altitude 22:19:11 39° 208° (SSW) 2,365 9.6 -14.1°
Enters shadow 22:26:16 17° 151° (SSE) 3,426 10.2 -14.4°
Drops below altitude 10° 22:28:12 10° 145° (SE) 3,936 - -14.5°
Sets 22:31:37 0° 137° (SE) 4,912 - -14.6°
